Location: Alafon
(8.4500°N, 4.2333°E)
Time: 01:50:38
(UTC+00:00)

SJ-6B - Pass Details

Date: 05 July 2020
Orbit: 510 x 581 km, 97.6° (Epoch: 06 August)

Event Time Altitude Azimuth Distance (km) Brightness Sun altitude
Exits shadow 19:58:34 42° 352° (N) 774 3.7 -25.9°
Drops below altitude 10° 20:01:15 10° 350° (N) 1,813 5.9 -26.4°
Sets 20:03:24 0° 350° (N) 2,718 6.9 -26.9°
